652  
ASUS43 KMKX 210711  
RWRWI  
 
WISCONSIN REGIONAL WEATHER ROUNDUP  
NATIONAL WEATHER SERVICE MILWAUKEE/SULLIVAN WI  
200 AM CDT SAT SEP 21 2019  
 
NOTE: "FAIR" INDICATES FEW OR NO CLOUDS BELOW 12,000 FEET WITH NO  
SIGNIFICANT WEATHER AND/OR S TO VISIBILITY
.  
 
WIZ001-002-006>008-014>016-023>028-210800-  
NORTHWEST WISCONSIN  
 
CITY SKY/WX TMP DP RH WIND PRES REMARKS
 
SUPERIOR ARPT FOG 52 52 100 NE3 29.94F VSB 3/4  
ASHLAND FOG 56 56 100 CALM 29.96F VSB 1/4  
HAYWARD FAIR 71 67 87 S5 29.97F FOG  
SIREN FAIR 73 67 81 S9 29.92F  
CUMBERLAND FAIR 68 66 94 SE7 29.96S  
RICE LAKE FAIR 70 57 63 SE6 29.98S  
CHETEK FAIR 69 69 100 SE3 29.97S  
LADYSMITH FAIR 71 70 98 SE6 30.01F  
EAU CLAIRE FAIR 73 67 81 S7 29.96S  
MENOMONIE FAIR 66 65 97 SE7 29.96S  
NEW RICHMOND FAIR 71 66 85 SE8 29.93S  
OSCEOLA FAIR 71 69 92 SE7 29.94F  

 
 
WIZ003>005-009-010-017-018-210800-  
NORTH CENTRAL WISCONSIN  
 
CITY SKY/WX TMP DP RH WIND PRES REMARKS
 
MANITOWISH WTR CLOUDY 68 68 100 S7 30.04F  
ARBOR VITAE CLOUDY 69 66 88 S6 30.05S  
WOODRUFF CLOUDY 69 66 88 S6 30.05S  
RHINELANDER CLOUDY 68 66 93 S6 30.07F  
EAGLE RIVER CLOUDY 67 66 99 S7 30.06F  
LAND O LAKES CLOUDY 67 65 93 S7 30.08S  
PHILLIPS FAIR 68 68 100 S6 30.02F  
TOMAHAWK CLOUDY 66 65 96 CALM 30.06S FOG  
MEDFORD FAIR 67 66 97 SE6 30.03F FOG  
MERRILL MOCLDY 67 67 100 SE3 30.06S FOG  

 
 
WIZ029-030-035-036-043>047-210800-  
CENTRAL WISCONSIN  
 
CITY SKY/WX TMP DP RH WIND PRES REMARKS
 
WAUSAU FAIR 66 66 100 E5 30.04F FOG  
MOSINEE FAIR N/A N/A N/A SE6 30.06F HAZE  
MARSHFIELD FAIR 69 67 93 SE6 30.03F FOG  
STEVENS POINT FAIR 66 66 100 SE3 30.05F FOG  
WAUPACA FAIR 67 67 97 CALM 30.06S FOG  
WAUTOMA FAIR 66 65 96 CALM 30.05F FOG  
WISC RAPIDS FAIR 70 68 93 SE5 30.03F FOG  
CAMP DOUGLAS FAIR 65 65 100 E5 30.01F  

 
 
WIZ011>013-019>022-031-037>040-048>050-210800-  
NORTHEAST WISCONSIN  
 
CITY SKY/WX TMP DP RH WIND PRES REMARKS
 
ANTIGO CLOUDY 65 65 100 S7 30.08F FOG  
SHAWANO FAIR 66 64 93 CALM 30.07S FOG  
OCONTO N/A 62 62 99 CALM 30.07S  
STURGEON BAY FAIR 63 61 93 SE6 30.08F  
GREEN BAY FAIR 64 62 93 CALM 30.07S FOG  
MANITOWOC FOG 66 66 100 S6 30.09F VSB 1/4  
APPLETON FAIR 64 64 100 SE5 30.05F FOG  
CLINTONVILLE FAIR 64 62 93 CALM 30.06S FOG  
OSHKOSH FAIR 65 63 93 S5 30.05F FOG  

 
 
WIZ032>034-041-042-053>061-210800-  
SOUTHWEST WISCONSIN  
 
CITY SKY/WX TMP DP RH WIND PRES REMARKS
 
LA CROSSE NOT AVBL  
SPARTA FAIR 71 65 81 S6 29.99F  
VIROQUA FAIR 69 69 100 SE8 30.01F  
BOSCOBEL FAIR 75 68 78 MISG 30.00F  
PRAIRIE DU CHI MOCLDY 71 67 87 E5 29.98F  
PLATTEVILLE MOCLDY 71 71 100 SE7 30.03S  

 
 
WIZ056-057-062-063-064-067-068-210800-  
SOUTH CENTRAL WISCONSIN  
 
CITY SKY/WX TMP DP RH WIND PRES REMARKS
 
REEDSBURG FAIR 71 70 96 S7 30.02F  
BARABOO/DELLS FAIR 68 66 93 S8 30.03F  
LONE ROCK FAIR 71 67 87 E7 30.01F  
MINERAL POINT FAIR 70 70 100 SE7 30.04F  
MADISON FAIR 72 67 84 S8 30.03F  
MIDDLETON FAIR 73 66 78 S5 30.05S  
WATERTOWN FAIR 67 67 100 CALM 30.06F FOG  
MONROE FAIR 71 66 84 S8 30.06F  
JANESVILLE FAIR 70 70 100 S6 30.06S  

 
 
WIZ051-052-058>065-066-070>072-210800-  
SOUTHEAST WISCONSIN  
 
CITY SKY/WX TMP DP RH WIND PRES REMARKS
 
MILWAUKEE FAIR 69 65 86 SE5 30.08S FOG  
WAUKESHA FAIR 66 63 88 S5 30.10S  
MILWAUKEE/TIMM FAIR 66 61 82 CALM 30.08F HAZE  
RACINE FAIR 71 66 84 S7 30.10F  
KENOSHA FAIR 68 67 96 SE3 30.09S FOG  
FOND DU LAC FAIR 68 65 90 S5 30.06F FOG  
SHEBOYGAN FOG 64 63 96 CALM 30.08F VSB 1/4  
WEST BEND CLOUDY 61 61 100 CALM 30.08F FOG  
JUNEAU FAIR 67 66 97 SE5 30.07F FOG  

 
 
LSZ147-162-210800-  
LAKE SUPERIOR  
 
STATION/POSITION TIME TEMP WIND PRES WAVE
 
AIR SEA DIR/SP/G HT/PER  
(UTC) (F) (DEG/KT/KT) (MB) (FT/S)  
W MID LAKE BUOY 0650 60 55 140/ 10/ 10 1014.3F 1/ 3  
DEVILS ISLAND 0600 56 100/ 8/ 8 1014.8F  
SAXON HARBOR 0630 59 310/ 4/ 5 1014.2S  

 
 
LMZ867-665-643>646-210800-  
LAKE MICHIGAN  
 
STATION/POSITION TIME TEMP WIND PRES WAVE
 
AIR SEA DIR/SP/G HT/PER  
(UTC) (F) (DEG/KT/KT) (MB) (FT/S)  
CHAMBERS ISLAND 0640 63 CALM / 2 N/A  
N MID LAKE BUOY 0650 64 64 160/ 4/ 6 1019.2F 0  
NORTHPORT PIER 0640 64 140/ 4/ 7 1018.3F  
KEWAUNEE LAKESHO 0630 62 CALM / 2 1017.9F  
SHEBOYGAN LAKESH 0700 64 160/ 7/ 7 1018.5F  
PORT WASHINGTON 0640 65 130/ 1/ 2 1019.6S  
ATWATER BUOY 0600 63 150/ 6/ 6 1019.0 0  
S MID LAKE BUOY 0650 71 69 160/ 10/ 12 1019.3S 1  
KENOSHA LAKESH 0700 68 180/ 8/ 10 1018.6  

 
 
TC - TEMPERATURE IN CELSIUS  
VSB - VISIBILITY IN STATUTE MILES  
WCI - WIND CHILL INDEX  
HX - HEAT INDEX  
 
 
 
CLICK HERE TO GO TO PREVIOUS BULLETINS.

The Nexlab WI Page Main Text Page